| time (UTC) | temp F | wind direction | speed MPH | gust MPH | rain 1hr in | rain 24hr in | rain mn in | humidity % | barometer mb |
| 20260504194516 | 75 | 135 | 1.0 | 5.0 | 0.00 | 0.00 | 0.00 | 33 | 1022.8 |
| 20260504194016 | 75 | 270 | 1.0 | 3.0 | 0.00 | 0.00 | 0.00 | 34 | 1022.9 |
| 20260504193516 | 75 | 23 | 1.0 | 3.0 | 0.00 | 0.00 | 0.00 | 37 | 1022.9 |
| 20260504193017 | 75 | 0.0 | 4.0 | 0.00 | 0.00 | 0.00 | 34 | 1023.1 | |
| 20260504192536 | 75 | 0.0 | 3.0 | 0.00 | 0.00 | 0.00 | 37 | 1023.1 | |
| 20260504192036 | 75 | 0.0 | 2.0 | 0.00 | 0.00 | 0.00 | 35 | 1023.3 | |
| 20260504191516 | 75 | 135 | 2.0 | 5.0 | 0.00 | 0.00 | 0.00 | 34 | 1023.3 |
| 20260504191016 | 75 | 0.0 | 2.0 | 0.00 | 0.00 | 0.00 | 35 | 1023.3 | |
| 20260504190516 | 75 | 0.0 | 2.0 | 0.00 | 0.00 | 0.00 | 34 | 1023.5 | |
| 20260504190016 | 75 | 0.0 | 2.0 | 0.00 | 0.00 | 0.00 | 36 | 1023.4 | |
| 20260504185516 | 75 | 0 | 1.0 | 3.0 | 0.00 | 0.00 | 0.00 | 37 | 1023.5 |
| 20260504185016 | 74 | 113 | 2.0 | 6.0 | 0.00 | 0.00 | 0.00 | 36 | 1023.5 |
| 20260504184516 | 74 | 135 | 2.0 | 7.0 | 0.00 | 0.00 | 0.00 | 34 | 1023.6 |
| 20260504184016 | 74 | 135 | 1.0 | 5.0 | 0.00 | 0.00 | 0.00 | 39 | 1023.6 |
| 20260504183516 | 74 | 338 | 1.0 | 4.0 | 0.00 | 0.00 | 0.00 | 37 | 1023.6 |
| 20260504183016 | 74 | 0.0 | 1.0 | 0.00 | 0.00 | 0.00 | 37 | 1023.7 | |
| 20260504182516 | 74 | 135 | 1.0 | 5.0 | 0.00 | 0.00 | 0.00 | 37 | 1023.7 |
| 20260504182016 | 73 | 135 | 1.0 | 5.0 | 0.00 | 0.00 | 0.00 | 40 | 1023.8 |
| 20260504181536 | 73 | 0.0 | 2.0 | 0.00 | 0.00 | 0.00 | 39 | 1023.9 | |
| 20260504181016 | 72 | 0.0 | 4.0 | 0.00 | 0.00 | 0.00 | 42 | 1023.9 | |
| 20260504180536 | 72 | 113 | 1.0 | 4.0 | 0.00 | 0.00 | 0.00 | 38 | 1024.0 |
| 20260504180016 | 72 | 0.0 | 1.0 | 0.00 | 0.00 | 0.00 | 39 | 1024.1 | |
| 20260504175516 | 72 | 0.0 | 2.0 | 0.00 | 0.00 | 0.00 | 42 | 1024.1 | |
| 20260504175016 | 72 | 135 | 1.0 | 4.0 | 0.00 | 0.00 | 0.00 | 38 | 1024.3 |
| 20260504174516 | 72 | 0.0 | 1.0 | 0.00 | 0.00 | 0.00 | 38 | 1024.4 | |
| 20260504174016 | 72 | 0.0 | 1.0 | 0.00 | 0.00 | 0.00 | 40 | 1024.5 | |
| 20260504173516 | 72 | 270 | 1.0 | 6.0 | 0.00 | 0.00 | 0.00 | 38 | 1024.5 |
| 20260504173016 | 72 | 135 | 1.0 | 3.0 | 0.00 | 0.00 | 0.00 | 40 | 1024.5 |
| 20260504172536 | 72 | 0.0 | 2.0 | 0.00 | 0.00 | 0.00 | 40 | 1024.6 | |
| 20260504172016 | 72 | 0.0 | 3.0 | 0.00 | 0.00 | 0.00 | 38 | 1024.8 | |
| 20260504171516 | 72 | 0.0 | 2.0 | 0.00 | 0.00 | 0.00 | 36 | 1024.8 | |
| 20260504171036 | 72 | 270 | 1.0 | 4.0 | 0.00 | 0.00 | 0.00 | 37 | 1025.0 |
| 20260504170516 | 72 | 293 | 1.0 | 2.0 | 0.00 | 0.00 | 0.00 | 39 | 1025.1 |
| 20260504151016 | 71 | 270 | 1.0 | 3.0 | 0.00 | 0.00 | 0.00 | 42 | 1025.9 |
| 20260504150516 | 71 | 0.0 | 1.0 | 0.00 | 0.00 | 0.00 | 42 | 1026.0 | |
| 20260504141016 | 66 | 0.0 | 1.0 | 0.00 | 0.00 | 0.00 | 53 | 1026.2 | |
| 20260504140516 | 65 | 0.0 | 1.0 | 0.00 | 0.00 | 0.00 | 51 | 1026.3 | |
| 20260504130516 | 58 | 0.0 | 1.0 | 0.00 | 0.00 | 0.00 | 63 | 1026.5 | |
| 20260504110516 | 46 | 0.0 | 0.0 | 0.00 | 0.00 | 0.00 | 78 | 1026.9 | |
| 20260504100536 | 47 | 0.0 | 0.0 | 0.00 | 0.00 | 0.00 | 74 | 1026.6 | |
| 20260504081516 | 49 | 0.0 | 0.0 | 0.00 | 0.00 | 0.00 | 70 | 1027.0 | |
| 20260504081016 | 49 | 0.0 | 1.0 | 0.00 | 0.00 | 0.00 | 71 | 1027.1 | |
| 20260504080515 | 49 | 0.0 | 0.0 | 0.00 | 0.00 | 0.00 | 71 | 1027.1 | |
| 20260504050536 | 42 | 0.0 | 0.0 | 0.00 | 0.00 | 0.00 | 83 | 1026.9 | |
| 20260504050016 | 42 | 0.0 | 0.0 | 0.00 | 0.00 | 0.00 | 84 | 1026.9 | |
| 20260504045516 | 42 | 0.0 | 0.0 | 0.00 | 0.00 | 0.00 | 84 | 1026.9 | |
| 20260504045056 | 42 | 0.0 | 0.0 | 0.00 | 0.00 | 0.00 | 83 | 1026.8 | |
| 20260504044536 | 42 | 0.0 | 0.0 | 0.00 | 0.00 | 0.00 | 83 | 1026.9 | |
| 20260504044016 | 43 | 0.0 | 0.0 | 0.00 | 0.00 | 0.00 | 83 | 1026.7 | |
| 20260504043516 | 43 | 0.0 | 0.0 | 0.00 | 0.00 | 0.00 | 83 | 1026.9 | |
| 20260504043015 | 43 | 0.0 | 0.0 | 0.00 | 0.00 | 0.00 | 83 | 1026.8 | |
| 20260504042516 | 43 | 0.0 | 0.0 | 0.00 | 0.00 | 0.00 | 84 | 1026.9 | |
| 20260504042016 | 43 | 0.0 | 0.0 | 0.00 | 0.00 | 0.00 | 84 | 1026.9 | |
| 20260504041515 | 43 | 0.0 | 0.0 | 0.00 | 0.00 | 0.00 | 84 | 1026.9 | |
| 20260504041015 | 43 | 0.0 | 0.0 | 0.00 | 0.00 | 0.00 | 83 | 1026.8 | |
| 20260504040515 | 43 | 0.0 | 0.0 | 0.00 | 0.00 | 0.00 | 84 | 1026.8 | |
| 20260504040036 | 43 | 0.0 | 0.0 | 0.00 | 0.00 | 0.00 | 83 | 1026.8 | |
| 20260504035516 | 43 | 0.0 | 0.0 | 0.00 | 0.00 | 0.00 | 84 | 1026.9 | |
| 20260504035016 | 43 | 0.0 | 0.0 | 0.00 | 0.00 | 0.00 | 84 | 1026.9 | |
| 20260504034516 | 43 | 0.0 | 0.0 | 0.00 | 0.00 | 0.00 | 84 | 1026.9 | |
| 20260504034016 | 43 | 0.0 | 0.0 | 0.00 | 0.00 | 0.00 | 83 | 1026.9 | |
| 20260504033516 | 43 | 0.0 | 0.0 | 0.00 | 0.00 | 0.00 | 83 | 1026.9 | |
| 20260504033016 | 43 | 0.0 | 0.0 | 0.00 | 0.00 | 0.00 | 84 | 1026.9 | |
| 20260504032516 | 43 | 0.0 | 0.0 | 0.00 | 0.00 | 0.00 | 84 | 1026.9 | |
| 20260504032016 | 43 | 0.0 | 0.0 | 0.00 | 0.00 | 0.00 | 84 | 1026.9 | |
| 20260504031516 | 43 | 0.0 | 0.0 | 0.00 | 0.00 | 0.00 | 84 | 1026.9 | |
| 20260504031016 | 43 | 0.0 | 0.0 | 0.00 | 0.00 | 0.00 | 84 | 1026.7 | |
| 20260504030517 | 43 | 0.0 | 0.0 | 0.00 | 0.00 | 0.00 | 84 | 1026.8 | |
| 20260504030016 | 43 | 0.0 | 0.0 | 0.00 | 0.00 | 0.00 | 83 | 1026.7 | |
| 20260504025516 | 43 | 0.0 | 0.0 | 0.00 | 0.00 | 0.00 | 83 | 1026.6 | |
| 20260504025036 | 44 | 0.0 | 0.0 | 0.00 | 0.00 | 0.00 | 83 | 1026.6 | |
| 20260504024516 | 44 | 0.0 | 0.0 | 0.00 | 0.00 | 0.00 | 82 | 1026.7 | |
| 20260504024016 | 44 | 0.0 | 0.0 | 0.00 | 0.00 | 0.00 | 82 | 1026.6 | |
| 20260504023516 | 44 | 0.0 | 0.0 | 0.00 | 0.00 | 0.00 | 82 | 1026.7 | |
| 20260504023016 | 44 | 0.0 | 0.0 | 0.00 | 0.00 | 0.00 | 82 | 1026.6 | |
| 20260504022516 | 44 | 0.0 | 0.0 | 0.00 | 0.00 | 0.00 | 82 | 1026.5 | |
| 20260504022016 | 44 | 0.0 | 0.0 | 0.00 | 0.00 | 0.00 | 82 | 1026.6 | |
| 20260504021516 | 45 | 0.0 | 0.0 | 0.00 | 0.00 | 0.00 | 81 | 1026.6 | |
| 20260504021036 | 45 | 0.0 | 0.0 | 0.00 | 0.00 | 0.00 | 80 | 1026.7 | |
| 20260504020516 | 45 | 0.0 | 0.0 | 0.00 | 0.00 | 0.00 | 80 | 1026.7 | |
| 20260504020036 | 45 | 0.0 | 0.0 | 0.00 | 0.00 | 0.00 | 79 | 1026.6 | |
| 20260504015516 | 45 | 0.0 | 0.0 | 0.00 | 0.00 | 0.00 | 78 | 1026.5 | |
| 20260504015016 | 46 | 0.0 | 0.0 | 0.00 | 0.00 | 0.00 | 78 | 1026.5 | |
| 20260504014516 | 46 | 0.0 | 0.0 | 0.00 | 0.00 | 0.00 | 77 | 1026.5 | |
| 20260504014016 | 46 | 0.0 | 0.0 | 0.00 | 0.00 | 0.00 | 77 | 1026.5 | |
| 20260504013516 | 46 | 0.0 | 0.0 | 0.00 | 0.00 | 0.00 | 77 | 1026.5 | |
| 20260504013016 | 47 | 0.0 | 0.0 | 0.00 | 0.00 | 0.00 | 76 | 1026.5 | |
| 20260504012536 | 47 | 0.0 | 0.0 | 0.00 | 0.00 | 0.00 | 75 | 1026.4 | |
| 20260504012016 | 47 | 0.0 | 0.0 | 0.00 | 0.00 | 0.00 | 74 | 1026.4 | |
| 20260504011536 | 48 | 0.0 | 0.0 | 0.00 | 0.00 | 0.00 | 73 | 1026.3 | |
| 20260504011016 | 48 | 0.0 | 0.0 | 0.00 | 0.00 | 0.00 | 71 | 1026.3 | |
| 20260504010516 | 49 | 0.0 | 0.0 | 0.00 | 0.00 | 0.00 | 70 | 1026.3 | |
| 20260504010016 | 49 | 0.0 | 0.0 | 0.00 | 0.00 | 0.00 | 70 | 1026.3 | |
| 20260504005516 | 49 | 0.0 | 0.0 | 0.00 | 0.00 | 0.00 | 68 | 1026.3 | |
| 20260504005016 | 50 | 0.0 | 0.0 | 0.00 | 0.00 | 0.00 | 67 | 1026.3 | |
| 20260504004516 | 50 | 0.0 | 0.0 | 0.00 | 0.00 | 0.00 | 65 | 1026.3 | |
| 20260504004016 | 51 | 0.0 | 0.0 | 0.00 | 0.00 | 0.00 | 64 | 1026.2 | |
| 20260504003536 | 51 | 0.0 | 0.0 | 0.00 | 0.00 | 0.00 | 63 | 1026.2 | |
| 20260504003016 | 52 | 0.0 | 0.0 | 0.00 | 0.00 | 0.00 | 62 | 1026.2 | |
| 20260504002516 | 52 | 0.0 | 0.0 | 0.00 | 0.00 | 0.00 | 61 | 1026.1 | |
| 20260504002036 | 53 | 0.0 | 0.0 | 0.00 | 0.00 | 0.00 | 59 | 1026.0 | |
| 20260504001536 | 53 | 0.0 | 0.0 | 0.00 | 0.00 | 0.00 | 58 | 1026.0 | |
| 20260504001016 | 54 | 0.0 | 0.0 | 0.00 | 0.00 | 0.00 | 57 | 1026.0 | |
| 20260504000516 | 54 | 0.0 | 0.0 | 0.00 | 0.00 | 0.00 | 56 | 1026.0 | |
| 20260504000016 | 54 | 0.0 | 0.0 | 0.00 | 0.00 | 0.00 | 54 | 1025.9 | |
| 20260503235516 | 55 | 0.0 | 0.0 | 0.00 | 0.00 | 0.00 | 53 | 1025.9 | |
| 20260503235016 | 55 | 0.0 | 0.0 | 0.00 | 0.00 | 0.00 | 52 | 1025.8 | |
| 20260503234516 | 56 | 0.0 | 0.0 | 0.00 | 0.00 | 0.00 | 50 | 1025.7 | |
| 20260503234016 | 56 | 0.0 | 0.0 | 0.00 | 0.00 | 0.00 | 48 | 1025.7 | |
| 20260503233516 | 56 | 0.0 | 0.0 | 0.00 | 0.00 | 0.00 | 47 | 1025.6 | |
| 20260503233036 | 57 | 0.0 | 0.0 | 0.00 | 0.00 | 0.00 | 46 | 1025.7 | |
| 20260503232516 | 57 | 0.0 | 0.0 | 0.00 | 0.00 | 0.00 | 45 | 1025.7 | |
| 20260503232036 | 57 | 0.0 | 0.0 | 0.00 | 0.00 | 0.00 | 44 | 1025.8 | |
| 20260503231516 | 58 | 0.0 | 0.0 | 0.00 | 0.00 | 0.00 | 44 | 1025.7 | |
| 20260503231016 | 58 | 0.0 | 0.0 | 0.00 | 0.00 | 0.00 | 45 | 1025.7 | |
| 20260503230516 | 58 | 0.0 | 0.0 | 0.00 | 0.00 | 0.00 | 45 | 1025.6 | |
| 20260503230016 | 58 | 0.0 | 0.0 | 0.00 | 0.00 | 0.00 | 43 | 1025.7 | |
| 20260503225516 | 59 | 0.0 | 0.0 | 0.00 | 0.00 | 0.00 | 42 | 1025.7 | |
| 20260503225016 | 59 | 0.0 | 0.0 | 0.00 | 0.00 | 0.00 | 41 | 1025.7 | |
| 20260503224516 | 59 | 0.0 | 1.0 | 0.00 | 0.00 | 0.00 | 42 | 1025.7 | |
| 20260503224016 | 59 | 0.0 | 1.0 | 0.00 | 0.00 | 0.00 | 41 | 1025.7 | |
| 20260503223516 | 59 | 0.0 | 1.0 | 0.00 | 0.00 | 0.00 | 42 | 1025.7 | |
| 20260503223056 | 60 | 0.0 | 0.0 | 0.00 | 0.00 | 0.00 | 44 | 1025.8 | |
| 20260503222516 | 60 | 0.0 | 1.0 | 0.00 | 0.00 | 0.00 | 44 | 1025.8 | |
| 20260503222016 | 60 | 0.0 | 0.0 | 0.00 | 0.00 | 0.00 | 43 | 1025.8 | |
| 20260503221516 | 60 | 0.0 | 1.0 | 0.00 | 0.00 | 0.00 | 41 | 1025.8 | |
| 20260503221016 | 61 | 0.0 | 2.0 | 0.00 | 0.00 | 0.00 | 38 | 1025.8 | |
| 20260503220516 | 61 | 0.0 | 1.0 | 0.00 | 0.00 | 0.00 | 37 | 1025.9 | |
| 20260503220016 | 61 | 0.0 | 0.0 | 0.00 | 0.00 | 0.00 | 37 | 1025.9 | |
| 20260503215516 | 61 | 0.0 | 0.0 | 0.00 | 0.00 | 0.00 | 37 | 1026.0 | |
| 20260503215036 | 61 | 0.0 | 0.0 | 0.00 | 0.00 | 0.00 | 36 | 1026.0 | |
| 20260503214516 | 61 | 0.0 | 2.0 | 0.00 | 0.00 | 0.00 | 36 | 1025.9 | |
| 20260503214016 | 61 | 0.0 | 1.0 | 0.00 | 0.00 | 0.00 | 35 | 1026.0 | |
| 20260503213536 | 61 | 0.0 | 3.0 | 0.00 | 0.00 | 0.00 | 39 | 1026.0 | |
| 20260503213016 | 61 | 0.0 | 1.0 | 0.00 | 0.00 | 0.00 | 37 | 1026.0 | |
| 20260503212536 | 61 | 0.0 | 2.0 | 0.00 | 0.00 | 0.00 | 38 | 1025.9 | |
| 20260503212036 | 61 | 135 | 1.0 | 3.0 | 0.00 | 0.00 | 0.00 | 37 | 1026.0 |
| 20260503211516 | 61 | 0.0 | 2.0 | 0.00 | 0.00 | 0.00 | 36 | 1026.0 | |
| 20260503211016 | 61 | 0.0 | 2.0 | 0.00 | 0.00 | 0.00 | 35 | 1026.0 | |
| 20260503210516 | 61 | 0.0 | 1.0 | 0.00 | 0.00 | 0.00 | 36 | 1026.0 | |
| 20260503210016 | 61 | 0.0 | 2.0 | 0.00 | 0.00 | 0.00 | 37 | 1026.0 | |
| 20260503205556 | 61 | 0.0 | 1.0 | 0.00 | 0.00 | 0.00 | 35 | 1025.9 | |
| 20260503205016 | 61 | 0.0 | 1.0 | 0.00 | 0.00 | 0.00 | 36 | 1025.9 | |
| 20260503204516 | 61 | 0.0 | 3.0 | 0.00 | 0.00 | 0.00 | 34 | 1025.9 | |
| 20260503204016 | 61 | 315 | 1.0 | 3.0 | 0.00 | 0.00 | 0.00 | 36 | 1026.0 |
| 20260503203516 | 61 | 135 | 1.0 | 3.0 | 0.00 | 0.00 | 0.00 | 36 | 1026.0 |
| 20260503203016 | 61 | 0.0 | 1.0 | 0.00 | 0.00 | 0.00 | 37 | 1026.1 | |
| 20260503202516 | 61 | 0.0 | 1.0 | 0.00 | 0.00 | 0.00 | 36 | 1026.0 | |
| 20260503202056 | 61 | 0.0 | 2.0 | 0.00 | 0.00 | 0.00 | 37 | 1026.2 | |
| 20260503201516 | 61 | 315 | 1.0 | 2.0 | 0.00 | 0.00 | 0.00 | 35 | 1026.2 |
| 20260503201016 | 61 | 0.0 | 2.0 | 0.00 | 0.00 | 0.00 | 35 | 1026.3 | |
| 20260503200516 | 61 | 0.0 | 1.0 | 0.00 | 0.00 | 0.00 | 35 | 1026.4 | |
| 20260503200016 | 61 | 293 | 1.0 | 2.0 | 0.00 | 0.00 | 0.00 | 36 | 1026.3 |
| 20260503195516 | 61 | 0.0 | 3.0 | 0.00 | 0.00 | 0.00 | 36 | 1026.4 | |
| 20260503195016 | 61 | 225 | 1.0 | 2.0 | 0.00 | 0.00 | 0.00 | 35 | 1026.4 |